TimeCST,TemperatureF,Dew PointF,Humidity,Sea Level PressureIn,VisibilityMPH,Wind Direction,Wind SpeedMPH,Gust SpeedMPH,PrecipitationIn,Events,Conditions,WindDirDegrees,DateUTC
12:53 AM,46.0,41.0,83,29.96,10.0,NNE,3.5,-,N/A,,Clear,30,2013-02-24 06:53:00
1:53 AM,45.0,41.0,86,29.96,10.0,NNE,3.5,-,N/A,,Clear,20,2013-02-24 07:53:00
2:53 AM,44.1,39.0,82,29.97,10.0,North,4.6,-,N/A,,Clear,10,2013-02-24 08:53:00
3:53 AM,43.0,39.0,86,29.96,10.0,Variable,3.5,-,N/A,,Clear,0,2013-02-24 09:53:00
4:53 AM,42.1,39.0,89,29.96,10.0,Calm,Calm,-,N/A,,Clear,0,2013-02-24 10:53:00
5:44 AM,42.8,39.2,87,29.96,10.0,NE,6.9,-,N/A,,Partly Cloudy,40,2013-02-24 11:44:00
6:53 AM,42.1,39.9,92,29.96,9.0,NE,3.5,-,N/A,,Clear,40,2013-02-24 12:53:00
7:53 AM,45.0,41.0,86,29.97,10.0,NE,6.9,-,N/A,,Clear,50,2013-02-24 13:53:00
8:53 AM,50.0,41.0,71,30.00,10.0,ENE,5.8,-,N/A,,Clear,70,2013-02-24 14:53:00
9:53 AM,55.0,41.0,59,30.00,10.0,NE,8.1,-,N/A,,Clear,50,2013-02-24 15:53:00
10:53 AM,60.1,41.0,49,30.00,10.0,Variable,3.5,-,N/A,,Clear,0,2013-02-24 16:53:00
11:53 AM,63.0,43.0,48,29.97,10.0,Variable,4.6,-,N/A,,Clear,0,2013-02-24 17:53:00
12:53 PM,66.0,43.0,43,29.93,10.0,Variable,4.6,-,N/A,,Clear,0,2013-02-24 18:53:00
1:53 PM,69.1,41.0,36,29.91,10.0,East,8.1,-,N/A,,Clear,80,2013-02-24 19:53:00
2:53 PM,70.0,42.1,36,29.88,10.0,ENE,5.8,-,N/A,,Clear,70,2013-02-24 20:53:00
3:53 PM,70.0,41.0,35,29.86,10.0,ESE,8.1,-,N/A,,Clear,110,2013-02-24 21:53:00
4:53 PM,66.9,43.0,42,29.86,10.0,Variable,3.5,-,N/A,,Clear,0,2013-02-24 22:53:00
5:53 PM,64.9,45.0,48,29.86,10.0,Calm,Calm,-,N/A,,Scattered Clouds,0,2013-02-24 23:53:00
6:53 PM,64.0,46.0,52,29.84,10.0,Calm,Calm,-,N/A,,Clear,0,2013-02-25 00:53:00
7:53 PM,63.0,45.0,52,29.84,10.0,East,4.6,-,N/A,,Overcast,90,2013-02-25 01:53:00
8:53 PM,62.1,48.0,60,29.83,10.0,SE,4.6,-,N/A,Thunderstorm,Overcast,140,2013-02-25 02:53:00
9:24 PM,60.8,53.6,77,29.86,10.0,SSE,6.9,-,0.00,Rain,Light Rain,150,2013-02-25 03:24:00
9:53 PM,57.9,55.9,93,29.83,5.0,ESE,5.8,-,0.07,Rain,Rain,110,2013-02-25 03:53:00
10:53 PM,57.0,55.9,96,29.76,5.0,SE,12.7,20.7,0.09,Rain,Light Rain,130,2013-02-25 04:53:00
11:53 PM,57.0,55.9,96,29.73,10.0,SE,8.1,18.4,0.02,,Overcast,140,2013-02-25 05:53:00